{"data":{"norad_id":61720,"intl_designator":"2024-196P","name":"STARLINK-32322","alt_names":[],"object_type":"PAYLOAD","status":"ACTIVE","operator":null,"country":"US","launch_date":"2024-10-30","launch_site_code":"AFETR","launch_vehicle":null,"mission":null,"orbit_class":"UNKNOWN","rcs_meters":null,"size_class":null,"mass_kg":null,"dimensions":null,"purposes":["comms"],"wikipedia_slug":null,"has_3d_model":false,"image_url":null,"decayed_at":null,"tle_current":{"epoch":"2026-05-25T04:23:19.649184Z","epoch_age_seconds":56483,"freshness":"FRESH","line1":"1 61720U 24196P   26145.18286631  .00002849  00000+0  10831-3 0  9999","line2":"2 61720  53.1602 106.3500 0001479 103.4756 256.6410 15.30193318 88865","mean_motion":15.30193318,"eccentricity":0.0001479,"inclination_deg":53.1602,"raan_deg":106.35,"arg_perigee_deg":103.4756,"mean_anomaly_deg":256.641,"bstar":0.00010831,"rev_number":8886,"period_min":94.105756642704,"perigee_km":474.22140701762,"apogee_km":476.24863446135,"semimajor_km":6853.3720207395,"source":"CELESTRAK","updated_at":"2026-05-25T13:38:19.446637Z"}}}